TimeEDT,TemperatureF,Dew PointF,Humidity,Sea Level PressureIn,VisibilityMPH,Wind Direction,Wind SpeedMPH,Gust SpeedMPH,PrecipitationIn,Events,Conditions,WindDirDegrees,DateUTC
12:53 AM,79.0,77.0,94,30.08,10.0,East,6.9,33.4,N/A,,Clear,90,2013-08-22 04:53:00
1:53 AM,78.1,75.9,93,30.07,10.0,Calm,Calm,-,N/A,,Clear,0,2013-08-22 05:53:00
2:53 AM,77.0,75.9,96,30.06,10.0,NE,5.8,-,N/A,,Clear,40,2013-08-22 06:53:00
3:50 AM,77.0,75.2,94,30.04,9.0,ENE,3.5,-,N/A,,Scattered Clouds,60,2013-08-22 07:50:00
3:53 AM,77.0,75.9,96,30.04,9.0,ENE,3.5,-,N/A,,Scattered Clouds,60,2013-08-22 07:53:00
4:00 AM,77.0,75.2,94,30.03,9.0,ENE,3.5,-,N/A,,Mostly Cloudy,70,2013-08-22 08:00:00
4:20 AM,75.2,75.2,100,30.04,10.0,Calm,Calm,-,N/A,,Scattered Clouds,0,2013-08-22 08:20:00
4:40 AM,77.0,75.2,94,30.03,9.0,ENE,3.5,-,N/A,,Mostly Cloudy,70,2013-08-22 08:40:00
4:50 AM,77.0,75.2,94,30.04,9.0,NE,3.5,-,N/A,,Scattered Clouds,50,2013-08-22 08:50:00
4:53 AM,75.9,75.9,100,30.04,9.0,NE,3.5,-,N/A,,Mostly Cloudy,50,2013-08-22 08:53:00
5:05 AM,75.2,75.2,100,30.04,9.0,Calm,Calm,-,N/A,,Partly Cloudy,0,2013-08-22 09:05:00
5:53 AM,75.9,75.0,97,30.06,7.0,NNE,4.6,-,N/A,,Clear,20,2013-08-22 09:53:00
6:16 AM,75.2,75.2,100,30.05,7.0,NNE,4.6,-,N/A,,Scattered Clouds,20,2013-08-22 10:16:00
6:24 AM,75.2,75.2,100,30.05,7.0,NNE,4.6,-,N/A,,Mostly Cloudy,30,2013-08-22 10:24:00
6:33 AM,75.2,75.2,100,30.05,7.0,NE,3.5,-,N/A,,Scattered Clouds,50,2013-08-22 10:33:00
6:53 AM,75.9,75.0,97,30.04,7.0,ENE,5.8,-,N/A,,Clear,70,2013-08-22 10:53:00
7:51 AM,77.0,75.2,94,30.06,9.0,ENE,4.6,-,N/A,,Scattered Clouds,70,2013-08-22 11:51:00
7:53 AM,77.0,75.9,96,30.06,9.0,ENE,4.6,-,N/A,,Scattered Clouds,60,2013-08-22 11:53:00
8:53 AM,80.1,75.9,87,30.08,10.0,East,8.1,-,N/A,,Clear,80,2013-08-22 12:53:00
9:53 AM,84.9,77.0,77,30.08,10.0,East,11.5,-,N/A,,Scattered Clouds,90,2013-08-22 13:53:00
10:24 AM,84.2,77.0,79,30.08,10.0,East,10.4,-,N/A,,Mostly Cloudy,80,2013-08-22 14:24:00
10:53 AM,87.1,77.0,72,30.08,10.0,East,11.5,-,N/A,,Scattered Clouds,100,2013-08-22 14:53:00
11:53 AM,89.1,75.0,63,30.07,10.0,ESE,11.5,-,N/A,,Scattered Clouds,120,2013-08-22 15:53:00
12:53 PM,90.0,73.9,59,30.05,10.0,SE,6.9,-,N/A,,Partly Cloudy,130,2013-08-22 16:53:00
1:53 PM,91.0,73.9,57,30.04,10.0,ESE,4.6,-,N/A,,Partly Cloudy,120,2013-08-22 17:53:00
2:53 PM,93.0,73.0,52,30.01,10.0,SE,5.8,-,N/A,,Clear,130,2013-08-22 18:53:00
3:53 PM,88.0,73.0,61,29.99,10.0,East,12.7,24.2,N/A,,Scattered Clouds,100,2013-08-22 19:53:00
4:53 PM,81.0,75.9,85,30.00,10.0,ESE,8.1,-,0.01,,Scattered Clouds,120,2013-08-22 20:53:00
5:53 PM,75.9,72.0,87,30.00,10.0,SSW,4.6,-,0.01,,Scattered Clouds,200,2013-08-22 21:53:00
6:53 PM,77.0,73.9,90,30.02,10.0,NNE,5.8,-,0.04,Rain,Light Rain,20,2013-08-22 22:53:00
7:38 PM,77.0,75.2,94,30.03,10.0,NNE,3.5,-,0.03,Rain,Light Rain,20,2013-08-22 23:38:00
7:53 PM,77.0,75.0,94,30.03,10.0,NE,6.9,-,0.03,Rain,Light Rain,50,2013-08-22 23:53:00
8:53 PM,77.0,75.0,94,30.02,10.0,Calm,Calm,-,0.00,Rain,Light Rain,0,2013-08-23 00:53:00
9:53 PM,77.0,75.0,94,30.03,10.0,ENE,4.6,-,0.01,,Partly Cloudy,70,2013-08-23 01:53:00
10:53 PM,77.0,75.0,94,30.05,10.0,SE,3.5,-,N/A,,Partly Cloudy,140,2013-08-23 02:53:00
11:53 PM,77.0,75.0,94,30.05,10.0,Calm,Calm,-,N/A,,Clear,0,2013-08-23 03:53:00